Location: Blangy-Tronville
(49.8790°N, 2.4226°E)
Time: 06:48:50
(UTC+00:00)

Geosat FO - Pass Details

Date: 18 November 2025
Orbit: 362 x 448 km, 108.0° (Epoch: 06 December)

Event Time Altitude Azimuth Distance (km) Brightness Sun altitude
Exits shadow 17:54:30 23° 160° (SSE) 829 5.6 -17.7°
Maximum altitude 17:56:05 72° 240° (WSW) 389 4.1 -18.0°
Drops below altitude 10° 17:58:56 10° 326° (NW) 1,362 7.1 -18.4°
Sets 18:00:52 0° 329° (NNW) 2,219 8.2 -18.7°
